Weather in Kazarman

Kyrgyzstan     41°24′19″N   74°02′06″E
temp.,
°C
wind,
m/s
gust,
m/s
humid.,
%
clouds,
%
prec.,
mm/h
press.,
hPa
HPBL,
m
12 august, fri
fri1200:00+12se11555 0.1 101311
03:00+10e11611 0.0 101311
06:00+9ese11641 0.0 101410
09:00+17s11350 0.0 1014574
12:00+23s12220 0.0 10102027
15:00+27ne14159 0.0 10053528
18:00+26w33165 0.0 10053014
21:00+15nw12390 0.0 100913
13 august, sat
sat1300:00+13nne22461 0.0 101216
03:00+11nne33640 0.0 101327
06:00+10nne22690 0.0 101418
09:00+18s11410 0.0 1013555
12:00+25ssw22180 0.0 10092062
15:00+28ne24122 0.0 10053414
18:00+28nnw33120 0.0 10043167
21:00+17nnw33270 0.0 100915
14 august, sun
sun1400:00+14nne43440 0.0 101135
03:00+12nne33570 0.0 101233
06:00+11nne33600 0.0 101222
09:00+20s01340 0.0 1010542
12:00+27ssw22190 0.0 10061591
15:00+30ssw23150 0.0 10032732
18:00+31nnw141311 0.0 10013725
21:00+19nnw22310 0.0 100613
15 august, mon
mon1500:00+16ne11375 0.0 100711
03:00+15nne33464 0.0 100819
06:00+14nne225215 0.0 100911
09:00+22ssw11305 0.0 1008484
12:00+28s22170 0.0 10041749
15:00+32s251314 0.0 10004179
18:00+31wsw551423 0.0 10003128
21:00+18wsw12320 0.0 100518
16 august, tue
tue1600:00+16nne22350 0.0 100712
03:00+14nne11471 0.0 100811
06:00+12nnw01553 0.0 100911
09:00+22ssw112413 0.0 1008558
12:00+28ssw481687 0.0 10043547
15:00+29sw79142 0.0 10023730
18:00+28wsw710142 0.0 10023508
21:00+17w23303 0.0 100715